Year,Month,Day,Hour,Minute,Value (Times are PST for temperature in C)
2016,07,28,00,00,13.50
2016,07,28,00,01,13.50
2016,07,28,00,02,13.50
2016,07,28,00,03,13.50
2016,07,28,00,04,13.50
2016,07,28,00,05,13.50
2016,07,28,00,06,13.50
2016,07,28,00,07,13.50
2016,07,28,01,23,13.20
2016,07,28,01,24,13.20
2016,07,28,01,26,13.20
2016,07,28,01,27,13.20
2016,07,28,01,28,13.20
2016,07,28,01,29,13.20
2016,07,28,01,31,13.20
2016,07,28,01,32,13.20
2016,07,28,01,33,13.20
2016,07,28,01,34,13.20
2016,07,28,01,36,13.20
2016,07,28,01,37,13.20
2016,07,28,01,38,13.20
2016,07,28,01,39,13.20
2016,07,28,01,41,13.20
2016,07,28,01,42,13.20
2016,07,28,01,43,13.20
2016,07,28,01,44,13.20
2016,07,28,01,46,13.20
2016,07,28,01,47,13.20
2016,07,28,01,48,13.20
2016,07,28,01,49,13.20
2016,07,28,01,51,13.20
2016,07,28,01,52,13.20
2016,07,28,01,53,13.20
2016,07,28,01,54,13.20
2016,07,28,01,56,13.20
2016,07,28,01,57,13.10
2016,07,28,01,58,13.10
2016,07,28,01,59,13.10
2016,07,28,02,01,13.10
2016,07,28,02,02,13.10
2016,07,28,02,03,13.10
2016,07,28,02,04,13.10
2016,07,28,02,06,13.10
2016,07,28,02,07,13.10
2016,07,28,02,08,13.10
2016,07,28,02,09,13.00
2016,07,28,02,11,13.00
2016,07,28,02,12,13.00
2016,07,28,02,13,13.00
2016,07,28,02,14,13.00
2016,07,28,02,15,13.00
2016,07,28,02,16,13.00
2016,07,28,02,17,12.90
2016,07,28,02,18,12.90
2016,07,28,02,19,12.90
2016,07,28,02,20,12.90
2016,07,28,02,21,12.90
2016,07,28,02,22,12.90
2016,07,28,02,23,12.90
2016,07,28,02,24,12.80
2016,07,28,02,25,12.80
2016,07,28,02,26,12.80
2016,07,28,02,27,12.80
2016,07,28,02,28,12.80
2016,07,28,02,29,12.80
2016,07,28,02,30,12.80
2016,07,28,02,31,12.80
2016,07,28,02,32,12.80
2016,07,28,02,33,12.80
2016,07,28,02,34,12.80
2016,07,28,02,35,12.80
2016,07,28,02,36,12.90
2016,07,28,02,37,12.90
2016,07,28,02,38,12.90
2016,07,28,02,39,12.90
2016,07,28,02,40,12.90
2016,07,28,02,41,12.90
2016,07,28,02,42,12.90
2016,07,28,02,43,12.90
2016,07,28,02,44,12.90
2016,07,28,02,45,12.90
2016,07,28,02,46,12.90
2016,07,28,02,47,12.90
2016,07,28,02,48,12.90
2016,07,28,02,49,12.90
2016,07,28,02,50,12.90
2016,07,28,02,51,12.90
2016,07,28,02,52,12.90
2016,07,28,02,53,12.90
2016,07,28,02,54,12.90
2016,07,28,02,55,12.90
2016,07,28,02,56,12.90
2016,07,28,02,57,12.90
2016,07,28,02,58,12.90
2016,07,28,02,59,12.90
2016,07,28,03,00,12.80
2016,07,28,03,01,12.80
2016,07,28,03,02,12.80
2016,07,28,03,03,12.80
2016,07,28,03,04,12.80
2016,07,28,03,05,12.80
2016,07,28,03,06,12.80
2016,07,28,03,07,12.80
2016,07,28,03,08,12.80
2016,07,28,03,09,12.80
2016,07,28,03,10,12.80
2016,07,28,03,11,12.80
2016,07,28,03,12,12.80
2016,07,28,03,13,12.80
2016,07,28,03,14,12.80
2016,07,28,03,15,12.80
2016,07,28,03,16,12.80
2016,07,28,03,17,12.80
2016,07,28,03,18,12.80
2016,07,28,03,19,12.70
2016,07,28,03,20,12.70
2016,07,28,03,21,12.70
2016,07,28,03,22,12.70
2016,07,28,03,23,12.70
2016,07,28,03,24,12.70
2016,07,28,03,25,12.70
2016,07,28,03,26,12.70
2016,07,28,03,27,12.70
2016,07,28,03,28,12.60
2016,07,28,03,29,12.60
2016,07,28,03,30,12.60
2016,07,28,03,31,12.60
2016,07,28,03,32,12.60
2016,07,28,03,33,12.60
2016,07,28,03,34,12.60
2016,07,28,03,35,12.60
2016,07,28,03,36,12.60
2016,07,28,03,37,12.60
2016,07,28,03,38,12.60
2016,07,28,03,39,12.60
2016,07,28,03,40,12.60
2016,07,28,03,42,12.60
2016,07,28,03,43,12.60
2016,07,28,03,44,12.60
2016,07,28,03,46,12.60
2016,07,28,03,47,12.60
2016,07,28,03,48,12.60
2016,07,28,03,49,12.60
2016,07,28,03,51,12.60
2016,07,28,03,52,12.60
2016,07,28,03,53,12.50
2016,07,28,03,54,12.50
2016,07,28,03,56,12.50
2016,07,28,03,57,12.50
2016,07,28,03,58,12.50
2016,07,28,03,59,12.50
2016,07,28,04,01,12.50
2016,07,28,04,02,12.50
2016,07,28,04,03,12.50
2016,07,28,04,04,12.50
2016,07,28,04,06,12.50
2016,07,28,04,07,12.50
2016,07,28,04,08,12.50
2016,07,28,04,09,12.40
2016,07,28,04,11,12.40
2016,07,28,04,12,12.40
2016,07,28,04,13,12.40
2016,07,28,04,14,12.40
2016,07,28,04,16,12.40
2016,07,28,04,17,12.40
2016,07,28,04,18,12.30
2016,07,28,04,19,12.30
2016,07,28,04,21,12.30
2016,07,28,04,22,12.30
2016,07,28,04,23,12.30
2016,07,28,04,24,12.30
2016,07,28,04,26,12.30
2016,07,28,04,27,12.30
2016,07,28,04,28,12.30
2016,07,28,04,29,12.30
2016,07,28,04,31,12.30
2016,07,28,04,32,12.30
2016,07,28,04,33,12.20
2016,07,28,04,34,12.20
2016,07,28,04,36,12.20
2016,07,28,04,37,12.20
2016,07,28,04,38,12.20
2016,07,28,04,39,12.20
2016,07,28,04,41,12.20
2016,07,28,04,42,12.20
2016,07,28,06,23,12.80
2016,07,28,06,24,12.80
2016,07,28,06,26,12.80
2016,07,28,06,27,12.80
2016,07,28,06,28,12.80
2016,07,28,06,29,12.80
2016,07,28,06,31,12.80
2016,07,28,06,32,12.80
2016,07,28,06,33,12.80
2016,07,28,06,34,12.80
2016,07,28,06,36,12.80
2016,07,28,06,37,12.80
2016,07,28,06,38,12.80
2016,07,28,06,39,12.80
2016,07,28,06,41,12.90
2016,07,28,06,42,12.90
2016,07,28,06,43,12.90
2016,07,28,06,44,12.90
2016,07,28,06,46,13.00
2016,07,28,06,47,13.00
2016,07,28,06,48,13.00
2016,07,28,06,49,13.00
2016,07,28,06,51,13.00
2016,07,28,06,52,13.00
2016,07,28,06,53,13.00
2016,07,28,06,54,13.00
2016,07,28,06,56,13.00
2016,07,28,06,57,13.10
2016,07,28,06,58,13.10
2016,07,28,06,59,13.10
2016,07,28,07,01,13.10
2016,07,28,07,02,13.10
2016,07,28,07,03,13.10
2016,07,28,07,04,13.10
2016,07,28,07,06,13.10
2016,07,28,07,07,13.10
2016,07,28,07,08,13.10
2016,07,28,07,09,13.10
2016,07,28,07,11,13.20
2016,07,28,07,12,13.20
2016,07,28,07,13,13.20
2016,07,28,07,14,13.20
2016,07,28,07,15,13.20
2016,07,28,07,16,13.20
2016,07,28,07,17,13.20
2016,07,28,07,18,13.20
2016,07,28,07,19,13.20
2016,07,28,07,20,13.30
2016,07,28,07,21,13.30
2016,07,28,07,22,13.30
2016,07,28,07,23,13.20
2016,07,28,07,24,13.30
2016,07,28,07,25,13.30
2016,07,28,07,26,13.30
2016,07,28,07,27,13.30
2016,07,28,07,28,13.30
2016,07,28,07,29,13.30
2016,07,28,07,30,13.30
2016,07,28,07,31,13.30
2016,07,28,07,32,13.30
2016,07,28,07,33,13.30
2016,07,28,07,34,13.30
2016,07,28,07,35,13.40
2016,07,28,07,36,13.40
2016,07,28,07,37,13.40
2016,07,28,07,38,13.50
2016,07,28,07,39,13.50
2016,07,28,07,40,13.50
2016,07,28,07,41,13.50
2016,07,28,07,42,13.50
2016,07,28,07,43,13.50
2016,07,28,07,44,13.50
2016,07,28,07,45,13.50
2016,07,28,07,46,13.60
2016,07,28,07,47,13.60
2016,07,28,07,48,13.60
2016,07,28,07,49,13.60
2016,07,28,07,50,13.60
2016,07,28,07,51,13.60
2016,07,28,07,52,13.60
2016,07,28,07,53,13.60
2016,07,28,07,54,13.60
2016,07,28,07,55,13.70
2016,07,28,07,56,13.70
2016,07,28,07,57,13.70
2016,07,28,07,58,13.70
2016,07,28,07,59,13.70
2016,07,28,08,00,13.70
2016,07,28,08,01,13.70
2016,07,28,08,02,13.70
2016,07,28,08,03,13.80
2016,07,28,08,04,13.80
2016,07,28,08,05,13.90
2016,07,28,08,06,13.90
2016,07,28,08,07,13.90
2016,07,28,08,08,14.00
2016,07,28,08,09,14.00
2016,07,28,08,10,14.00
2016,07,28,08,11,14.10
2016,07,28,08,12,14.10
2016,07,28,08,13,14.10
2016,07,28,08,14,14.10
2016,07,28,08,15,14.10
2016,07,28,08,16,14.20
2016,07,28,08,17,14.10
2016,07,28,08,18,14.10
2016,07,28,08,19,14.10
2016,07,28,08,20,14.20
2016,07,28,08,21,14.20
2016,07,28,08,22,14.20
2016,07,28,08,23,14.20
2016,07,28,08,24,14.20
2016,07,28,08,25,14.20
2016,07,28,08,27,14.40
2016,07,28,08,28,14.50
2016,07,28,08,29,14.60
2016,07,28,08,31,14.80
2016,07,28,08,32,14.90
2016,07,28,08,33,15.00
2016,07,28,08,34,15.10
2016,07,28,08,36,15.30
2016,07,28,08,37,15.30
2016,07,28,08,38,15.30
2016,07,28,08,39,15.40
2016,07,28,08,41,15.50
2016,07,28,08,42,15.60
2016,07,28,08,43,15.70
2016,07,28,08,44,15.70
2016,07,28,08,46,15.80
2016,07,28,08,47,15.90
2016,07,28,08,48,15.90
2016,07,28,08,49,16.10
2016,07,28,08,51,16.10
2016,07,28,08,52,16.10
2016,07,28,08,53,16.10
2016,07,28,08,54,16.20
2016,07,28,08,56,16.30
2016,07,28,08,57,16.30
2016,07,28,08,58,16.40
2016,07,28,08,59,16.40
2016,07,28,09,01,16.40
2016,07,28,09,02,16.60
2016,07,28,09,03,16.70
2016,07,28,09,04,16.70
2016,07,28,09,06,16.90
2016,07,28,09,07,17.00
2016,07,28,09,08,17.10
2016,07,28,09,09,17.20
2016,07,28,09,11,17.40
2016,07,28,09,12,17.50
2016,07,28,09,13,17.60
2016,07,28,09,14,17.80
2016,07,28,09,16,17.90
2016,07,28,09,17,18.20
2016,07,28,09,18,18.20
2016,07,28,09,19,18.40
2016,07,28,09,21,18.70
2016,07,28,09,22,18.80
2016,07,28,09,23,18.90
2016,07,28,09,24,19.10
2016,07,28,09,26,19.10
2016,07,28,09,27,19.20
2016,07,28,09,28,19.30
2016,07,28,09,29,19.30
2016,07,28,09,31,19.50
2016,07,28,09,32,19.50
2016,07,28,09,33,19.60
2016,07,28,09,34,19.60
2016,07,28,09,36,19.80
2016,07,28,09,37,19.80
2016,07,28,09,38,19.90
2016,07,28,09,39,19.90
2016,07,28,09,40,19.90
2016,07,28,09,41,20.10
2016,07,28,09,42,20.10
2016,07,28,09,43,20.20
2016,07,28,09,44,20.20
2016,07,28,09,45,20.20
2016,07,28,09,46,20.20
2016,07,28,09,47,20.20
2016,07,28,09,48,20.20
2016,07,28,09,49,20.20
2016,07,28,09,50,20.20
2016,07,28,09,51,20.20
2016,07,28,09,52,20.20
2016,07,28,09,53,19.90
2016,07,28,09,54,19.90
2016,07,28,09,55,19.70
2016,07,28,09,56,19.70
2016,07,28,09,57,19.60
2016,07,28,09,58,19.50
2016,07,28,09,59,19.40
2016,07,28,10,00,19.30
2016,07,28,10,01,19.20
2016,07,28,10,02,19.10
2016,07,28,10,03,19.10
2016,07,28,10,04,19.10
2016,07,28,10,05,19.10
2016,07,28,10,06,19.10
2016,07,28,10,07,19.10
2016,07,28,10,08,18.90
2016,07,28,10,09,18.90
2016,07,28,10,10,18.90
2016,07,28,10,11,18.90
2016,07,28,10,12,18.90
2016,07,28,10,13,18.90
2016,07,28,10,14,18.90
2016,07,28,10,15,18.90
2016,07,28,10,16,18.80
2016,07,28,10,17,18.90
2016,07,28,10,18,18.90
2016,07,28,10,19,18.90
2016,07,28,10,20,18.90
2016,07,28,10,21,18.90
2016,07,28,10,22,18.90
2016,07,28,10,23,18.80
2016,07,28,10,24,18.80
2016,07,28,10,25,18.70
2016,07,28,10,26,18.70
2016,07,28,10,27,18.70
2016,07,28,10,28,18.70
2016,07,28,10,29,18.70
2016,07,28,10,30,18.70
2016,07,28,10,31,18.70
2016,07,28,10,32,18.70
2016,07,28,10,33,18.70
2016,07,28,10,34,18.70
2016,07,28,10,35,18.80
2016,07,28,10,36,18.80
2016,07,28,10,37,18.90
2016,07,28,10,38,18.90
2016,07,28,10,39,18.90
2016,07,28,10,40,19.10
2016,07,28,10,41,19.10
2016,07,28,10,42,19.20
2016,07,28,10,43,19.20
2016,07,28,10,44,19.20
2016,07,28,10,45,19.20
2016,07,28,10,46,19.20
2016,07,28,10,47,19.20
2016,07,28,10,48,19.20
2016,07,28,10,49,19.20
2016,07,28,10,50,19.20
2016,07,28,10,51,19.30
2016,07,28,10,52,19.30
2016,07,28,10,53,19.30
2016,07,28,10,54,19.40
2016,07,28,10,55,19.40
2016,07,28,10,56,19.50
2016,07,28,10,57,19.60
2016,07,28,10,58,19.70
2016,07,28,10,59,19.80
2016,07,28,11,00,19.90
2016,07,28,11,01,19.90
2016,07,28,11,02,20.20
2016,07,28,11,03,20.20
2016,07,28,11,04,20.20
2016,07,28,11,05,20.20
2016,07,28,11,06,20.20
2016,07,28,11,07,20.20
2016,07,28,11,08,20.20
2016,07,28,11,09,20.20
2016,07,28,11,11,20.30
2016,07,28,11,12,20.40
2016,07,28,11,13,20.60
2016,07,28,11,14,20.70
2016,07,28,11,16,20.90
2016,07,28,11,17,21.00
2016,07,28,11,18,21.00
2016,07,28,11,19,20.90
2016,07,28,11,21,21.00
2016,07,28,11,22,21.00
2016,07,28,11,23,21.00
2016,07,28,11,24,21.00
2016,07,28,11,26,21.10
2016,07,28,11,27,21.20
2016,07,28,11,28,21.20
2016,07,28,11,29,21.30
2016,07,28,11,31,21.30
2016,07,28,11,32,21.30
2016,07,28,11,33,21.40
2016,07,28,11,34,21.60
2016,07,28,11,36,21.60
2016,07,28,11,37,21.60
2016,07,28,11,38,21.70
2016,07,28,11,39,21.60
2016,07,28,11,41,21.60
2016,07,28,11,45,21.70
2016,07,28,11,46,21.80
2016,07,28,11,47,21.90
2016,07,28,11,48,22.00
2016,07,28,11,49,22.00
2016,07,28,11,50,22.10
2016,07,28,11,51,22.10
2016,07,28,11,52,22.10
2016,07,28,11,53,22.10
2016,07,28,11,54,22.10
2016,07,28,11,55,22.00
2016,07,28,11,56,21.90
2016,07,28,11,57,21.80
2016,07,28,11,58,21.80
2016,07,28,11,59,21.80
2016,07,28,12,00,21.90
2016,07,28,12,01,21.90
2016,07,28,12,02,22.00
2016,07,28,12,03,22.10
2016,07,28,12,04,22.30
2016,07,28,12,05,22.40
2016,07,28,12,06,22.40
2016,07,28,12,07,22.50
2016,07,28,12,08,22.50
2016,07,28,12,09,22.60
2016,07,28,12,10,22.60
2016,07,28,12,11,22.70
2016,07,28,12,12,22.70
2016,07,28,12,13,22.60
2016,07,28,12,14,22.60
2016,07,28,12,15,22.60
2016,07,28,12,16,22.50
2016,07,28,12,17,22.50
2016,07,28,12,18,22.50
2016,07,28,12,19,22.60
2016,07,28,12,21,22.70
2016,07,28,12,22,22.80
2016,07,28,12,23,22.90
2016,07,28,12,24,22.90
2016,07,28,12,25,22.90
2016,07,28,12,26,22.90
2016,07,28,12,27,22.90
2016,07,28,12,28,22.90
2016,07,28,12,29,22.90
2016,07,28,12,30,22.90
2016,07,28,12,31,22.90
2016,07,28,12,32,22.90
2016,07,28,12,33,22.90
2016,07,28,12,34,22.80
2016,07,28,12,35,22.70
2016,07,28,12,36,22.60
2016,07,28,12,37,22.60
2016,07,28,12,38,22.60
2016,07,28,12,39,22.70
2016,07,28,12,40,22.80
2016,07,28,12,41,22.80
2016,07,28,12,43,22.90
2016,07,28,12,44,23.10
2016,07,28,12,46,23.20
2016,07,28,12,47,23.20
2016,07,28,12,48,23.20
2016,07,28,12,49,23.30
2016,07,28,12,51,23.30
2016,07,28,12,52,23.30
2016,07,28,12,53,23.40
2016,07,28,12,54,23.40
2016,07,28,12,56,23.60
2016,07,28,12,57,23.60
2016,07,28,12,58,23.40
2016,07,28,12,59,23.40
2016,07,28,13,01,23.40
2016,07,28,13,02,23.40
2016,07,28,13,03,23.60
2016,07,28,13,04,23.60
2016,07,28,13,06,23.70
2016,07,28,13,07,23.70
2016,07,28,13,08,23.80
2016,07,28,13,09,23.80
2016,07,28,13,11,23.80
2016,07,28,13,12,23.80
2016,07,28,13,13,23.90
2016,07,28,13,23,24.40
2016,07,28,13,24,24.40
2016,07,28,13,26,24.50
2016,07,28,13,27,24.50
2016,07,28,13,28,24.40
2016,07,28,13,29,24.40
2016,07,28,13,31,24.40
2016,07,28,13,32,24.40
2016,07,28,13,33,24.40
2016,07,28,13,34,24.30
2016,07,28,13,36,24.30
2016,07,28,13,37,24.20
2016,07,28,13,38,24.20
2016,07,28,13,39,24.20
2016,07,28,13,41,24.20
2016,07,28,13,42,24.20
2016,07,28,13,43,24.30
2016,07,28,13,44,24.30
2016,07,28,13,46,24.40
2016,07,28,13,47,24.50
2016,07,28,13,48,24.60
2016,07,28,13,49,24.60
2016,07,28,13,51,24.80
2016,07,28,13,52,24.80
2016,07,28,13,53,24.80
2016,07,28,13,54,24.90
2016,07,28,13,56,24.90
2016,07,28,13,57,24.90
2016,07,28,13,58,24.90
2016,07,28,13,59,24.90
2016,07,28,14,01,24.70
2016,07,28,14,02,24.70
2016,07,28,14,03,24.60
2016,07,28,14,04,24.60
2016,07,28,14,05,24.60
2016,07,28,14,06,24.50
2016,07,28,14,07,24.50
2016,07,28,14,08,24.50
2016,07,28,14,09,24.50
2016,07,28,14,10,24.40
2016,07,28,14,11,24.40
2016,07,28,14,12,24.30
2016,07,28,14,13,24.30
2016,07,28,14,14,24.30
2016,07,28,14,15,24.20
2016,07,28,14,16,24.20
2016,07,28,14,17,24.20
2016,07,28,14,18,24.20
2016,07,28,14,19,24.20
2016,07,28,14,20,24.20
2016,07,28,14,21,24.20
2016,07,28,14,22,24.20
2016,07,28,14,23,24.20
2016,07,28,14,24,24.20
2016,07,28,14,25,24.20
2016,07,28,14,26,24.30
2016,07,28,14,27,24.30
2016,07,28,14,28,24.30
2016,07,28,14,29,24.30
2016,07,28,14,30,24.40
2016,07,28,14,31,24.40
2016,07,28,14,32,24.40
2016,07,28,14,33,24.50
2016,07,28,14,34,24.50
2016,07,28,14,35,24.50
2016,07,28,14,36,24.60
2016,07,28,14,37,24.60
2016,07,28,14,38,24.60
2016,07,28,14,39,24.60
2016,07,28,14,40,24.60
2016,07,28,14,41,24.60
2016,07,28,14,42,24.50
2016,07,28,14,43,24.50
2016,07,28,14,44,24.40
2016,07,28,14,45,24.30
2016,07,28,14,46,24.30
2016,07,28,14,47,24.30
2016,07,28,14,48,24.20
2016,07,28,14,49,24.20
2016,07,28,14,50,24.20
2016,07,28,14,51,24.10
2016,07,28,14,52,24.10
2016,07,28,14,53,24.10
2016,07,28,14,54,24.10
2016,07,28,14,55,24.10
2016,07,28,14,56,24.10
2016,07,28,14,57,23.90
2016,07,28,14,58,23.80
2016,07,28,14,59,23.70
2016,07,28,15,00,23.70
2016,07,28,15,01,23.70
2016,07,28,15,02,23.70
2016,07,28,15,03,23.70
2016,07,28,15,04,23.70
2016,07,28,15,05,23.70
2016,07,28,15,06,23.70
2016,07,28,15,07,23.80
2016,07,28,15,08,23.90
2016,07,28,15,09,24.10
2016,07,28,15,10,24.10
2016,07,28,15,11,24.20
2016,07,28,15,12,24.30
2016,07,28,15,13,24.40
2016,07,28,15,14,24.40
2016,07,28,15,15,24.40
2016,07,28,15,16,24.40
2016,07,28,15,17,24.40
2016,07,28,15,18,24.30
2016,07,28,15,19,24.20
2016,07,28,15,21,24.10
2016,07,28,15,22,24.10
2016,07,28,15,23,24.10
2016,07,28,15,24,23.90
2016,07,28,15,26,23.80
2016,07,28,15,27,23.80
2016,07,28,15,28,23.70
2016,07,28,15,29,23.70
2016,07,28,15,31,23.60
2016,07,28,15,32,23.40
2016,07,28,15,33,23.30
2016,07,28,15,34,23.30
2016,07,28,15,36,23.20
2016,07,28,15,37,23.20
2016,07,28,15,38,23.20
2016,07,28,15,39,23.30
2016,07,28,15,41,23.30
2016,07,28,15,42,23.30
2016,07,28,15,43,23.40
2016,07,28,15,44,23.60
2016,07,28,15,46,23.70
2016,07,28,15,47,23.70
2016,07,28,15,48,23.70
2016,07,28,15,49,23.70
2016,07,28,15,51,23.80
2016,07,28,15,52,23.90
2016,07,28,15,53,23.90
2016,07,28,15,54,24.10
2016,07,28,15,56,24.10
2016,07,28,15,57,24.20
2016,07,28,15,58,24.30
2016,07,28,15,59,24.30
2016,07,28,16,01,24.50
2016,07,28,16,02,24.60
2016,07,28,16,03,24.60
2016,07,28,16,04,24.70
2016,07,28,16,06,24.70
2016,07,28,16,07,24.70
2016,07,28,16,08,24.70
2016,07,28,16,09,24.80
2016,07,28,16,11,24.90
2016,07,28,16,12,24.90
2016,07,28,16,13,25.00
2016,07,28,16,14,25.00
2016,07,28,16,16,25.20
2016,07,28,16,17,25.20
2016,07,28,16,18,25.30
2016,07,28,16,19,25.40
2016,07,28,16,21,25.50
2016,07,28,16,22,25.40
2016,07,28,16,23,25.20
2016,07,28,16,24,24.90
2016,07,28,16,26,24.20
2016,07,28,16,27,24.10
2016,07,28,16,28,23.80
2016,07,28,16,29,23.70
2016,07,28,16,31,23.60
2016,07,28,16,32,23.60
2016,07,28,16,33,23.40
2016,07,28,16,34,23.40
2016,07,28,16,36,23.60
2016,07,28,16,37,23.60
2016,07,28,16,38,23.70
2016,07,28,16,39,23.70
2016,07,28,16,40,23.70
2016,07,28,16,41,23.70
2016,07,28,16,42,23.70
2016,07,28,16,43,23.70
2016,07,28,16,44,23.60
2016,07,28,16,45,23.40
2016,07,28,16,46,23.30
2016,07,28,16,47,23.30
2016,07,28,16,48,23.30
2016,07,28,16,49,23.30
2016,07,28,16,50,23.30
2016,07,28,16,51,23.30
2016,07,28,16,52,23.30
2016,07,28,16,53,23.40
2016,07,28,16,54,23.40
2016,07,28,16,55,23.60
2016,07,28,16,56,23.60
2016,07,28,16,57,23.70
2016,07,28,16,58,23.70
2016,07,28,16,59,23.70
2016,07,28,17,00,23.80
2016,07,28,17,01,23.80
2016,07,28,17,02,23.80
2016,07,28,17,03,23.80
2016,07,28,17,04,23.90
2016,07,28,17,05,23.90
2016,07,28,17,06,23.90
2016,07,28,17,07,23.90
2016,07,28,17,08,23.90
2016,07,28,17,09,23.90
2016,07,28,17,10,24.10
2016,07,28,17,11,24.10
2016,07,28,17,12,24.10
2016,07,28,17,13,24.10
2016,07,28,17,14,24.10
2016,07,28,17,15,24.10
2016,07,28,17,16,24.20
2016,07,28,17,17,24.20
2016,07,28,17,18,24.30
2016,07,28,17,19,24.30
2016,07,28,17,20,24.40
2016,07,28,17,21,24.40
2016,07,28,17,22,24.50
2016,07,28,17,23,24.50
2016,07,28,17,24,24.60
2016,07,28,17,25,24.60
2016,07,28,17,26,24.70
2016,07,28,17,27,24.70
2016,07,28,17,28,24.80
2016,07,28,17,29,24.80
2016,07,28,17,30,24.90
2016,07,28,17,31,24.90
2016,07,28,17,32,25.00
2016,07,28,17,33,25.00
2016,07,28,17,34,25.10
2016,07,28,17,35,25.20
2016,07,28,17,36,25.20
2016,07,28,17,37,25.20
2016,07,28,17,38,25.30
2016,07,28,17,39,25.30
2016,07,28,17,40,25.30
2016,07,28,17,41,25.30
2016,07,28,17,42,25.30
2016,07,28,17,43,25.30
2016,07,28,17,44,25.20
2016,07,28,17,45,25.10
2016,07,28,17,46,25.00
2016,07,28,17,47,25.00
2016,07,28,17,48,24.90
2016,07,28,17,49,24.90
2016,07,28,17,50,24.90
2016,07,28,17,51,24.90
2016,07,28,17,52,24.90
2016,07,28,17,53,24.90
2016,07,28,17,54,24.90
2016,07,28,17,55,24.90
2016,07,28,17,56,24.90
2016,07,28,17,57,25.00
2016,07,28,17,58,25.00
2016,07,28,17,59,25.10
2016,07,28,18,00,25.10
2016,07,28,18,01,25.20
2016,07,28,18,02,25.20
2016,07,28,18,03,25.20
2016,07,28,18,04,25.30
2016,07,28,18,05,25.30
2016,07,28,18,07,25.30
2016,07,28,18,08,25.30
2016,07,28,18,09,25.30
2016,07,28,18,11,25.20
2016,07,28,18,12,25.10
2016,07,28,18,13,25.10
2016,07,28,18,14,25.00
2016,07,28,18,16,24.90
2016,07,28,18,17,24.90
2016,07,28,18,18,24.80
2016,07,28,18,19,24.80
2016,07,28,18,21,24.70
2016,07,28,18,22,24.70
2016,07,28,18,23,24.60
2016,07,28,18,24,24.60
2016,07,28,19,23,22.20
2016,07,28,19,24,21.90
2016,07,28,19,26,21.30
2016,07,28,19,27,20.90
2016,07,28,19,28,20.40
2016,07,28,19,29,20.20
2016,07,28,19,31,19.80
2016,07,28,19,32,19.60
2016,07,28,19,33,19.60
2016,07,28,19,34,19.50
2016,07,28,19,36,19.50
2016,07,28,19,37,19.50
2016,07,28,19,38,19.60
2016,07,28,19,39,19.50
2016,07,28,19,41,19.30
2016,07,28,19,42,19.10
2016,07,28,19,43,18.90
2016,07,28,19,44,18.80
2016,07,28,19,46,18.50
2016,07,28,19,47,18.40
2016,07,28,19,48,18.30
2016,07,28,19,49,18.20
2016,07,28,19,51,17.90
2016,07,28,19,52,17.90
2016,07,28,19,53,17.80
2016,07,28,19,54,17.70
2016,07,28,19,56,17.50
2016,07,28,19,57,17.30
2016,07,28,19,58,17.30
2016,07,28,19,59,17.20
2016,07,28,20,01,17.00
2016,07,28,20,02,16.90
2016,07,28,20,03,16.80
2016,07,28,20,04,16.70
2016,07,28,20,06,16.70
2016,07,28,20,07,16.70
2016,07,28,20,08,16.70
2016,07,28,20,09,16.60
2016,07,28,20,11,16.40
2016,07,28,20,12,16.40
2016,07,28,20,13,16.30
2016,07,28,20,14,16.30
2016,07,28,20,15,16.30
2016,07,28,20,16,16.20
2016,07,28,20,17,16.20
2016,07,28,20,18,16.10
2016,07,28,20,19,16.10
2016,07,28,20,20,16.10
2016,07,28,20,21,16.10
2016,07,28,20,22,15.90
2016,07,28,20,23,15.90
2016,07,28,20,24,15.90
2016,07,28,20,25,15.80
2016,07,28,20,26,15.80
2016,07,28,20,27,15.80
2016,07,28,20,28,15.80
2016,07,28,20,29,15.80
2016,07,28,20,30,15.70
2016,07,28,20,31,15.60
2016,07,28,20,32,15.60
2016,07,28,20,33,15.50
2016,07,28,20,34,15.40
2016,07,28,20,35,15.30
2016,07,28,20,36,15.30
2016,07,28,20,37,15.30
2016,07,28,20,38,15.30
2016,07,28,20,39,15.20
2016,07,28,20,40,15.20
2016,07,28,20,41,15.10
2016,07,28,20,42,15.00
2016,07,28,20,43,14.90
2016,07,28,20,44,14.90
2016,07,28,20,45,14.80
2016,07,28,20,46,14.80
2016,07,28,20,47,14.70
2016,07,28,20,48,14.70
2016,07,28,20,49,14.70
2016,07,28,20,50,14.70
2016,07,28,20,51,14.60
2016,07,28,20,52,14.60
2016,07,28,20,53,14.60
2016,07,28,20,54,14.60
2016,07,28,20,55,14.60
2016,07,28,20,56,14.50
2016,07,28,20,57,14.50
2016,07,28,20,58,14.50
2016,07,28,20,59,14.50
2016,07,28,21,00,14.50
2016,07,28,21,01,14.40
2016,07,28,21,02,14.40
2016,07,28,21,03,14.40
2016,07,28,21,04,14.40
2016,07,28,21,05,14.40
2016,07,28,21,06,14.40
2016,07,28,21,07,14.40
2016,07,28,21,08,14.40
2016,07,28,21,09,14.40
2016,07,28,21,10,14.40
2016,07,28,21,11,14.40
2016,07,28,21,12,14.40
2016,07,28,21,13,14.50
2016,07,28,21,14,14.50
2016,07,28,21,15,14.50
2016,07,28,21,17,14.50
2016,07,28,21,18,14.60
2016,07,28,21,19,14.60
2016,07,28,21,20,14.60
2016,07,28,21,21,14.60
2016,07,28,21,22,14.60
2016,07,28,21,23,14.60
2016,07,28,21,24,14.60
2016,07,28,21,25,14.70
2016,07,28,21,26,14.70
2016,07,28,21,27,14.70
2016,07,28,21,28,14.70
2016,07,28,21,29,14.70
2016,07,28,21,30,14.70
2016,07,28,21,31,14.70
2016,07,28,21,32,14.70
2016,07,28,21,33,14.70
2016,07,28,21,34,14.70
2016,07,28,21,35,14.80
2016,07,28,21,36,14.80
2016,07,28,21,37,14.80
2016,07,28,21,38,14.80
2016,07,28,21,39,14.80
2016,07,28,21,40,14.80
2016,07,28,21,41,14.80
2016,07,28,21,42,14.80
2016,07,28,21,43,14.80
2016,07,28,21,44,14.80
2016,07,28,21,46,14.90
2016,07,28,21,47,14.90
2016,07,28,21,48,14.90
2016,07,28,21,49,14.90
2016,07,28,21,51,14.90
2016,07,28,21,52,14.90
2016,07,28,21,53,15.00
2016,07,28,21,54,15.00
2016,07,28,21,56,15.00
2016,07,28,21,57,15.10
2016,07,28,21,58,15.10
2016,07,28,21,59,15.10
2016,07,28,22,01,15.20
2016,07,28,22,02,15.20
2016,07,28,22,03,15.30
2016,07,28,22,04,15.30
2016,07,28,22,06,15.30
2016,07,28,22,07,15.40
2016,07,28,22,08,15.40
2016,07,28,22,09,15.40
2016,07,28,22,11,15.40
2016,07,28,22,12,15.40
2016,07,28,22,13,15.40
2016,07,28,22,14,15.30
2016,07,28,22,16,15.30
2016,07,28,22,17,15.20
2016,07,28,22,18,15.20
2016,07,28,22,19,15.20
2016,07,28,22,21,15.10
2016,07,28,22,22,15.10
2016,07,28,22,23,15.00
2016,07,28,22,24,15.00
2016,07,28,22,26,14.90
2016,07,28,22,27,14.90
2016,07,28,22,28,14.80
2016,07,28,22,29,14.80
2016,07,28,22,31,14.80
2016,07,28,22,32,14.80
2016,07,28,22,33,14.70
2016,07,28,22,34,14.70
2016,07,28,22,36,14.70
2016,07,28,22,37,14.60
2016,07,28,22,38,14.60
2016,07,28,22,39,14.60
2016,07,28,22,41,14.60
2016,07,28,22,42,14.60
2016,07,28,22,43,14.50
2016,07,28,22,44,14.50
2016,07,28,22,46,14.50
2016,07,28,22,47,14.40
2016,07,28,22,48,14.40
2016,07,28,22,49,14.40
2016,07,28,22,51,14.30
2016,07,28,22,52,14.30
2016,07,28,22,53,14.30
2016,07,28,22,54,14.30
2016,07,28,22,55,14.30
2016,07,28,22,56,14.20
2016,07,28,22,57,14.20
2016,07,28,22,58,14.20
2016,07,28,22,59,14.20
2016,07,28,23,00,14.20
2016,07,28,23,01,14.20
2016,07,28,23,02,14.20
2016,07,28,23,03,14.20
2016,07,28,23,04,14.10
2016,07,28,23,06,14.10
2016,07,28,23,07,14.10
2016,07,28,23,08,14.10
2016,07,28,23,09,14.10
2016,07,28,23,10,14.10
2016,07,28,23,11,14.00
2016,07,28,23,12,14.00
2016,07,28,23,13,14.00
2016,07,28,23,14,14.00
2016,07,28,23,15,13.90
2016,07,28,23,16,13.90
2016,07,28,23,17,13.90
2016,07,28,23,18,13.90
2016,07,28,23,19,13.90
2016,07,28,23,20,13.90
2016,07,28,23,21,13.90